{"data":{"norad_id":53137,"intl_designator":"2022-083F","name":"STARLINK-4145","alt_names":[],"object_type":"PAYLOAD","status":"ACTIVE","operator":null,"country":"US","launch_date":"2022-07-17","launch_site_code":"AFETR","launch_vehicle":null,"mission":null,"orbit_class":"UNKNOWN","rcs_meters":null,"size_class":null,"mass_kg":null,"dimensions":null,"purposes":["comms"],"wikipedia_slug":null,"has_3d_model":false,"image_url":null,"decayed_at":null,"tle_current":{"epoch":"2026-05-24T20:19:46.566336Z","epoch_age_seconds":91441,"freshness":"FRESH","line1":"1 53137U 22083F   26144.84706674  .00000341  00000+0  39495-4 0  9994","line2":"2 53137  53.2136 192.2360 0000869  80.9822 279.1268 15.08837984212717","mean_motion":15.08837984,"eccentricity":8.69e-5,"inclination_deg":53.2136,"raan_deg":192.236,"arg_perigee_deg":80.9822,"mean_anomaly_deg":279.1268,"bstar":3.9495e-5,"rev_number":21271,"period_min":95.437682194512,"perigee_km":539.14838673516,"apogee_km":540.35071541774,"semimajor_km":6917.8865510765,"source":"CELESTRAK","updated_at":"2026-05-25T13:38:17.316458Z"}}}